Weather in Lesopilnoye

Russia / Khabarovsk Krai     46°44′23″N   134°20′00″E
temp.,
°C
wind,
m/s
gust,
m/s
humid.,
%
clouds,
%
prec.,
mm/h
press.,
hPa
HPBL,
m
27 february, sat
sat2701:00−22s11940 0.0 103620
04:00−23se11960 0.0 103620
07:00−24se22989 0.0 103720
10:00−19se239511 0.0 1036186
13:00−13sse358879 0.0 1033413
16:00−10sse368490 0.0 1029506
19:00−10sse3688100 0.0 1025165
22:00−10s2688100 0.0 1024163
28 february, sun
sun2801:00−9s51788100 0.0 1022530
04:00−7ssw41593100 0.0 1020519
07:00−4ssw41492100 0.0 1020608
10:00−2sw41283100 0.0 1020960
13:000w3799100 0.9 1021544
16:00−3nw3595100 2.6 1021448
19:00−7nw3790100 0.5 1024446
22:00−10nw3982100 0.5 1027617
1 march, mon
mon101:00−15nnw2484100 0.0 102995
04:00−21nw118651 0.0 103320
07:00−23wnw12852 0.0 103420
10:00−18nw137936 0.0 1036233
13:00−13nw376463 0.0 10351054
16:00−12nnw356531 0.0 10341084
19:00−18nne12831 0.0 103420
22:00−22ne01830 0.0 103420
2 march, tue
tue201:00−23se01825 0.0 103420
04:00−23ene118437 0.0 103420
07:00−23n118599 0.0 103420
10:00−18nnw128462 0.0 1034196
13:00−14nnw347747 0.0 1032722
16:00−13nnw457124 0.0 1030871
19:00−19nnw22850 0.0 103121
22:00−23nnw11830 0.0 103220
3 march, wed
wed301:00−23sse11790 0.0 103120
04:00−23se22850 0.0 103120
07:00−24se22860 0.0 103026
10:00−19se34840 0.0 1028210
13:00−12sse477776 0.0 1023488
16:00−7s4117387 0.0 1020851
19:00−8s41491100 0.1 1019780
22:00−6s41395100 0.6 1018999